Flight Track Log - Related Links

Times and Time Zones

All times are in EDT time to prevent confusion due to time zone crossing. See the N700LP flight status page for this flight to view local times or setup timezone preferences in your user account.

Time Position Orientation Groundspeed Altitude Reporting Facility
EDT Latitude Longitude Course Direction KTS MPH feet Rate Location/Type
11:44PM 29.6372 -95.2864 291° West 194 223 700  Level Houston Center
11:45PM 29.6078 -95.3069 211° Southwest 194 223 2,100 2,051 Climbing Houston Center
11:46PM 29.5814 -95.3267 213° Southwest 203 234 3,400 2,656 Climbing Houston Center
11:46PM 29.5564 -95.3442 211° Southwest 225 259 4,800 3,290 Climbing Houston Center
11:47PM 29.5275 -95.3644 211° Southwest 225 259 6,800 3,541 Climbing Houston Center
11:47PM 29.5033 -95.3819 212° Southwest 220 253 8,400 3,738 Climbing Houston Center
11:48PM 29.4831 -95.4167 236° Southwest 214 246 10,600 2,909 Climbing Houston Center
11:49PM 29.5186 -95.4753 305° West 239 275 13,200 2,459 Climbing Houston Center
11:50PM 29.8676 -95.8863 291° West  Level FlightAware Approximate
11:50PM 29.5544 -95.5422 302° West 243 280 15,600  Level Houston Center
11:51PM 29.5989 -95.6186 304° West 286 329 16,000 197 Climbing Houston Center
11:52PM 29.6497 -95.7044 304° West 321 369 16,000  Level Houston Center
11:53PM 29.7003 -95.7942 303° West 333 383 16,000 295 Level Houston Center
11:54PM 29.7608 -95.9008 303° West 332 382 16,600 1,438 Climbing Houston Center
11:55PM 29.8069 -95.9817 303° West 308 354 18,900 1,967 Climbing Houston Center
11:56PM 29.8467 -96.0522 303° West 301 346 20,600 1,659 Climbing Houston Center
11:57PM 29.8944 -96.1344 304° West 308 354 22,300 1,171 Climbing Houston Center
11:58PM 29.9389 -96.2442 295° West 329 379 23,000 344 Climbing Houston Center
11:59PM 29.9444 -96.3533 273° West 345 397 23,000 836 Level Houston Center
12:00AM 29.9544 -96.4597 276° West 338 389 24,700 2,213 Climbing Houston Center
12:01AM 30.0050 -96.5403 306° West 312 359 27,500 2,262 Climbing Houston Center
12:02AM 30.0561 -96.6086 311° West 287 330 29,300 1,279 Climbing Houston Center
12:03AM 30.1022 -96.6853 305° West 291 335 30,100 689 Climbing Houston Center
12:04AM 30.1492 -96.7669 304° West 312 359 30,700 885 Climbing Houston Center
12:05AM 30.2322 -96.8144 334° Northwest 362 417 31,900 1,279 Climbing Houston Center
12:06AM 30.3306 -96.8144 360° North 352 405 33,300 984 Climbing Houston Center
12:07AM 30.4258 -96.8222 356° North 342 394 33,900 541 Climbing Houston Center
12:08AM 30.5408 -96.8400 352° North 354 407 34,400 689 Climbing Houston Center
12:09AM 30.6400 -96.8544 353° North 357 411 35,300 885 Climbing Houston Center
12:10AM 30.7389 -96.8686 353° North 356 410 36,200 1,033 Climbing Houston Center
12:11AM 30.8361 -96.8833 353° North 352 405 37,400 992 Climbing Houston Center
12:12AM 30.9311 -96.8986 352° North 345 397 38,200 694 Climbing Houston Center
12:13AM 31.0294 -96.9131 353° North 353 406 38,800 590 Climbing Houston Center
12:14AM 31.1275 -96.9283 352° North 353 406 39,400 590 Climbing Houston Center
12:15AM 31.2247 -96.9442 352° North 350 403 40,000 295 Climbing Houston Center
12:16AM 31.3256 -96.9606 352° North 360 414 40,000  Level Houston Center
12:17AM 31.4322 -96.9764 353° North 377 434 40,000  Level Houston Center
12:18AM 31.5403 -96.9936 352° North 387 445 40,000  Level Houston Center
12:19AM 31.6525 -97.0108 353° North 399 459 40,000  Level Houston Center
12:20AM 31.7656 -97.0283 353° North 404 465 40,000  Level Houston Center
12:21AM 31.8803 -97.0467 352° North 411 473 40,000  Level Houston Center
12:22AM 31.9958 -97.0653 352° North 413 475 40,000  Level Houston Center
12:23AM 32.1114 -97.0844 352° North 415 478 40,000  Level Houston Center
12:24AM 32.2283 -97.1003 353° North 417 480 40,000  Level Houston Center
12:25AM 32.3611 -97.1256 351° North 410 472 40,000  Level Fort Worth Center
12:26AM 32.4636 -97.1400 353° North 410 472 40,000  Level Fort Worth Center
12:27AM 32.5908 -97.1619 352° North 410 472 40,000  Level Fort Worth Center
12:28AM 32.6911 -97.1764 353° North 410 472 40,000  Level Fort Worth Center
12:29AM 32.8164 -97.1958 353° North 410 472 40,000  Level Fort Worth Center
12:30AM 32.9167 -97.2131 352° North 410 472 40,000  Level Fort Worth Center
12:31AM 33.0400 -97.2325 352° North 410 472 40,000  Level Fort Worth Center
12:32AM 33.1547 -97.2522 352° North 410 472 40,000  Level Fort Worth Center
12:33AM 33.2653 -97.2694 353° North 410 472 40,000  Level Fort Worth Center
12:34AM 33.3803 -97.2892 352° North 410 472 40,000  Level Fort Worth Center
12:35AM 33.4889 -97.3089 351° North 405 466 40,000 -150 Level Fort Worth Center
12:36AM 33.6014 -97.3261 353° North 410 472 39,700 -1,041 Descending Fort Worth Center
12:37AM 33.7164 -97.3511 350° North 410 472 37,900 -1,650 Descending Fort Worth Center
12:38AM 33.8353 -97.3683 353° North 415 478 36,400 -1,563 Descending Fort Worth Center
12:39AM 33.9542 -97.3883 352° North 426 490 34,800 -1,900 Descending Fort Worth Center
12:40AM 34.0772 -97.4086 352° North 438 504 32,600 -1,750 Descending Fort Worth Center
12:41AM 34.1983 -97.4261 353° North 438 504 31,300 -1,250 Descending Fort Worth Center
12:42AM 34.3111 -97.4461 352° North 425 489 30,100 -1,350 Descending Fort Worth Center
12:43AM 34.4175 -97.4639 352° North 408 470 28,600 -1,700 Descending Fort Worth Center
12:44AM 34.5217 -97.4792 353° North 387 445 26,700 -1,837 Descending Fort Worth Center
12:45AM 34.5844 -97.4892 353° North 342 394 25,600 -1,770 Descending Fort Worth Center
12:45AM 34.6156 -97.4967 349° North 364 419 24,900 -3,344 Descending Fort Worth Center
12:46AM 34.6783 -97.5044 354° North 326 375 22,200 -4,000 Descending Fort Worth Center
12:47AM 34.7722 -97.5222 351° North 346 398 18,300 -3,548 Descending Fort Worth Center
12:48AM 34.8472 -97.5553 340° North 312 359 15,400 -3,235 Descending Fort Worth Center
12:49AM 34.9242 -97.5983 335° Northwest 301 346 12,100 -3,322 Descending Fort Worth Center
12:50AM 35.0014 -97.6392 337° Northwest 300 345 8,700 -2,926 Descending Fort Worth Center
12:51AM 35.0700 -97.6850 331° Northwest 280 322 6,200 -1,279 Descending Fort Worth Center
12:52AM 35.1347 -97.6825 North 217 250 6,100 -545 Descending Fort Worth Center
12:53AM 35.1869 -97.6550 23° Northeast 212 244 5,100 -1,240 Descending Fort Worth Center
12:54AM 35.2517 -97.6475 North 240 276 3,600 -1,041 Descending Fort Worth Center
12:55AM 35.3206 -97.6503 358° North 212 244 3,000 -397 Descending Fort Worth Center
12:56AM 35.3642 -97.6528 357° North 142 163 2,800 -246 Descending Fort Worth Center
12:57AM 35.4061 -97.6506 North 139 160 2,500 -99 Descending Fort Worth Center
12:58AM 35.4456 -97.6481 North 142 163 2,600 -198 Climbing Fort Worth Center
12:59AM 35.4872 -97.6481 360° North 138 159 2,100 -496 Descending Fort Worth Center
01:00AM 35.5122 -97.6481 360° North 90 104 1,600 -500 Descending Fort Worth Center

Login

Don't have an account? Register now (free) for customized features, flight alerts, and more!